Location: Unspecified
(45.4615°N, 74.0512°W)
Time: 21:42:06
(UTC-04:00)

Cosmos 1674 - Visible Passes

Search period start: 18 October 2017 00:00
Search period end: 28 October 2017 00:00
Orbit: 497 x 523 km, 82.5° (Epoch: 18 October)

Date Brightness Start Highest point End Pass type
(mag) Time Alt. Az. Time Alt. Az. Time Alt. Az.
18 Oct 5.3 05:56:05 10° SE 05:59:04 23° E 06:02:04 10° NE visible
18 Oct 6.6 19:00:44 10° WNW 19:01:32 11° W 19:02:20 10° W visible
19 Oct 5.7 05:39:42 10° SE 05:42:20 19° E 05:44:59 10° NE visible
19 Oct 6.1 18:42:57 10° NW 18:44:50 13° W 18:46:43 10° WSW visible
20 Oct 6.0 05:23:28 10° ESE 05:25:37 15° E 05:27:46 10° NE visible
21 Oct 6.2 05:07:31 10° ESE 05:08:55 12° E 05:10:18 10° ENE visible
21 Oct 2.8 06:40:25 10° SSW 06:44:01 49° WNW 06:47:40 10° N visible
22 Oct 2.6 06:23:30 10° SSW 06:27:12 64° W 06:30:55 10° N visible
23 Oct 2.5 06:06:40 10° S 06:10:23 83° W 06:14:07 10° N visible
24 Oct 2.7 05:49:52 10° S 05:53:35 76° E 05:57:18 10° NNE visible
25 Oct 3.2 05:33:07 10° S 05:36:47 57° E 05:40:27 10° NNE visible
26 Oct 3.7 05:16:26 10° SSE 05:19:59 44° E 05:23:34 10° NNE visible
26 Oct 4.4 06:53:53 10° W 06:55:51 14° WNW 06:57:50 10° NW visible
27 Oct 4.2 05:01:13 20° SE 05:03:13 34° E 05:06:38 10° NNE visible
27 Oct 4.1 06:36:26 10° WSW 06:38:56 17° WNW 06:41:27 10° NNW visible
